Location: Krakow
(50.0830°N, 19.9170°E)
Time: 11:31:27
(UTC+01:00)

Transit 2A - Pass Details

Date: 08 February 2023
Orbit: 591 x 964 km, 66.7° (Epoch: 21 March)

Event Time Altitude Azimuth Distance (km) Brightness Sun altitude
Rises 14:32:23 0° 170° (S) 3,001 9.7 16.3°
Reaches altitude 10° 14:35:06 10° 154° (SSE) 2,153 8.7 16.0°
Maximum altitude 14:38:40 21° 107° (ESE) 1,642 7.6 15.6°
Drops below altitude 10° 14:42:31 10° 60° (ENE) 2,345 8.0 15.2°
Sets 14:45:36 0° 45° (NE) 3,355 8.7 14.9°
